Simultaneous Nadir Overpasses (SNOs) Predictions

Prediction of SNOs between METOP-B and NOAA-19 Satellite Orbit:

Table of predicted SNOs for the next 14.0 days since TLE Epoch: 2/27/2021
Index Date (METOP-B) Time (METOP-B) Lat,Lon (METOP-B) SZA (METOP-B ) Date (NOAA-19) Time (NOAA-19) Lat,Lon (NOAA-19) SZA (NOAA-19 ) Distance(km) Time Diff (sec)
1 03/03/2021 07:30:23 80.43, 94.37 87.89 03/03/2021 07:29:13 80.41, 94.48 87.86 2.88 70
2 03/03/2021 08:21:05 -80.42, -98.44 92.14 03/03/2021 08:20:15 -80.41, -98.41 92.16 0.60 50
3 03/03/2021 09:11:45 80.41, 68.89 87.85 03/03/2021 09:11:14 80.42, 68.78 87.83 1.99 31
4 03/03/2021 10:02:27 -80.40,-123.92 92.19 03/03/2021 10:02:15 -80.41,-123.76 92.18 2.98 12
5 03/03/2021 10:53:07 80.40, 43.40 87.80 03/03/2021 10:53:14 80.41, 43.42 87.81 0.89 7
6 03/03/2021 11:43:48 -80.42,-149.08 92.19 03/03/2021 11:44:15 -80.40,-149.11 92.20 2.23 27
7 03/03/2021 12:34:29 80.39, 17.92 87.75 03/03/2021 12:35:14 80.40, 18.06 87.79 2.94 45



Historial Predications of SNOs between METOP-B and NOAA-19
